Location: InfinitysEdge Observatory-FL
(28.1530°N, 80.6520°W)
Time: 09:10:35
(UTC-04:00)

Hubble Space Telescope - Visible Passes

Search period start: 17 October 2017 00:00
Search period end: 27 October 2017 00:00
Orbit: 537 x 541 km, 28.5° (Epoch: 16 October)

Date Brightness Start Highest point End Pass type
(mag) Time Alt. Az. Time Alt. Az. Time Alt. Az.
17 Oct 3.2 20:56:26 10° SW 20:57:32 17° SW 20:57:32 17° SW visible
18 Oct 2.5 20:46:02 10° SW 20:48:09 26° SSW 20:48:09 26° SSW visible
19 Oct 1.8 20:35:43 10° WSW 20:38:43 39° SSW 20:38:43 39° SSW visible
20 Oct 1.0 20:25:27 10° WSW 20:29:13 57° S 20:29:13 57° S visible
21 Oct 0.7 20:15:13 10° WSW 20:19:19 68° SSE 20:19:41 64° SE visible
22 Oct 0.7 20:05:02 10° WSW 20:09:09 78° S 20:10:06 51° E visible
23 Oct 0.7 19:54:51 10° W 19:58:59 86° S 20:00:30 38° E visible
24 Oct 0.7 19:44:41 10° W 19:48:49 89° NNW 19:50:53 29° E visible
24 Oct 4.0 21:25:57 10° W 21:26:15 12° W 21:26:15 12° W visible
25 Oct 0.7 19:34:32 10° W 19:38:40 85° N 19:41:17 22° E visible
25 Oct 3.7 21:15:48 10° W 21:16:38 16° W 21:16:38 16° W visible
26 Oct 0.7 19:24:22 10° W 19:28:30 84° N 19:31:41 17° E visible
26 Oct 3.3 21:05:38 10° W 21:07:03 20° W 21:07:03 20° W visible
